Regional Weather Roundup
Issued by NWS Northern Indiana

Home | Current Version | Previous Version | Text Only | Print | Product List | Glossary Off
Versions: 1 2 3 4 5 6 7 8 9 10 11 12 13 14 15 16 17 18 19 20 21 22 23 24 25 26 27 28 29 30 31 32 33 34 35 36 37 38 39 40 41 42 43 44 45 46 47 48 49 50

000
ASUS43 KIWX 272310
RWRIWX

KIWX WEATHER ROUNDUP
NATIONAL WEATHER SERVICE NORTHERN INDIANA
700 PM EDT MON JUL 27 2015

NOTE: "FAIR" INDICATES FEW OR NO CLOUDS BELOW 12,000 FEET WITH NO
SIGNIFICANT WEATHER AND/OR OBSTRUCTIONS TO VISIBILITY.

* THESE STATIONS ARE NOT UNDER NWS QUALITY CONTROL. THEY ALSO MAY NOT
  REPORT WEATHER SUCH AS PRECIPITATION OR FOG.

INZ001>027-280000-
NORTHERN INDIANA

CITY           SKY/WX    TMP DP  RH WIND       PRES   REMARKS
GARY*          PTSUNNY   81  68  65 NE13      29.98S
VALPARAISO     SUNNY     84  65  52 E6        29.97F
MICHIGAN CITY* SUNNY     81  66  61 N6        29.98F
LAPORTE*       SUNNY     85  66  52 E6        29.99F
KNOX*          SUNNY     82  61  47 E5        29.96F
SOUTH BEND     SUNNY     86  61  42 NE8       29.99F
ELKHART*       SUNNY     86  59  39 E8        29.99F
GOSHEN         SUNNY     84  65  52 E9        29.99F
MONTICELLO*    SUNNY     83  70  64 E5        29.95S
LOGANSPORT*    SUNNY     82  55  39 E7        29.97S
ROCHESTER*     SUNNY     86  63  45 E5        29.97F
WARSAW*        SUNNY     82  63  51 E7        29.99F
ANGOLA*        SUNNY     84  79  84 E5        30.00F HX  96
FORT WAYNE     MOSUNNY   83  60  45 E9        29.99F
HUNTINGTON*    SUNNY     84  61  46 NE5       29.97F
PERU/GRISSOM   SUNNY     84  62  48 E10       29.96F
MARION*        PTSUNNY   82  66  58 E7        29.97F

$$
INZ028>050-280000-
CENTRAL INDIANA

CITY           SKY/WX    TMP DP  RH WIND       PRES   REMARKS
LAFAYETTE      MOSUNNY   82  71  69 E10       29.94S
KOKOMO*        MOSUNNY   82  66  57 E8        29.96S
MUNCIE*        PTSUNNY   82  71  69 E8        29.97F
INDIANAPOLIS   PTSUNNY   85  70  60 N7        29.93F

$$
MIZ043>046-050>051-056>058-064>065-071>073-077>080-280000-
SOUTHWEST LOWER MICHIGAN

CITY           SKY/WX    TMP DP  RH WIND       PRES   REMARKS
BATTLE CREEK   SUNNY     87  63  44 VRB7      30.02S
BENTON HARBOR  SUNNY     82  66  58 VRB5      29.98F
COLDWATER*     SUNNY     82  60  48 E5        30.01S
HILLSDALE*     SUNNY     83  61  45 E5        30.02F
HOLLAND        SUNNY     88  62  41 E6        30.00F
GRAND RAPIDS   MOSUNNY   86  60  41 SE7       30.00F
KALAMAZOO      SUNNY     87  63  44 CALM      30.01F
STURGIS*       SUNNY     82  63  51 E5        30.00F
THREE RIVERS*  FAIR      84  61  45 E5        30.01S

$$
OHZ001>008-015>018-024>025-280000-
NORTHWEST OHIO

CITY           SKY/WX    TMP DP  RH WIND       PRES   REMARKS
DEFIANCE       SUNNY     86  64  47 E9        29.98F
FINDLAY        SUNNY     87  60  40 E8        29.97F
TOLEDO EXPRESS MOSUNNY   84  59  42 NE9       29.99F
TOLEDO METCALF SUNNY     84  60  44 E8        30.00F
LIMA           MOSUNNY   84  62  47 E6        29.98F

$$
AND FOR LAKE MICHIGAN COASTAL AND OPEN LAKE BUOY OBSERVATIONS

STATION/POSITION TEMP    WIND        PRES    VSBY  WAVE
                 AIR SEA DIR/SP/G                  HT/PER
                 (F)     (DEG/KT/KT) (MB)    (MI)  (FT/S)
CALUMET HARBOR    78      20/  8/ 13   N/A
MICHIGAN CITY     75      30/ 10/ 11   N/A
BURNS HARBOR      77      80/  9/ 11 1015.9F
SAINT JOSEPH      79     360/  9/ 13 1015.9F
4 MI NW BRIDGMAN  76 75   70/ 12/ 14   N/A           1/ 2
MICHIGAN CITY     76 76   40/ 10/ 10   N/A           1/ 2

$$
&&


USA.gov is the U.S. government's official web portal to all federal, state and local government web resources and services.